Location: Unspecified
(0.0000°N, 0.0000°E)
Time: 00:49:24
(UTC+00:00)

A-11 Canister half - Pass Details

Date: 17 February 2023
Orbit: 1526 x 1682 km, 47.3° (Epoch: 29 March)

Event Time Altitude Azimuth Distance (km) Brightness Sun altitude
Rises 08:16:37 0° 358° (N) 4,696 11.4 29.9°
Reaches altitude 10° 08:24:22 10° 38° (NE) 3,760 11.4 31.8°
Maximum altitude 08:25:24 10° 45° (NE) 3,751 11.5 32.0°
Drops below altitude 10° 08:26:27 10° 51° (NE) 3,774 11.6 32.3°
Sets 08:34:16 0° 90° (E) 4,816 12.6 34.2°
